Stations météo

Publicité
Tarbes/Ossun, France (7621): Température de l'air & dewpoint: 10.02.2019 08:00:00 - 16.02.2019 08:00:00 (CET)Tarbes/Ossun, France (7621): Température de l'air 5cm: 10.02.2019 08:00:00 - 16.02.2019 08:00:00 (CET)Tarbes/Ossun, France (7621): Température de l'air -20cm & Température de l'air -100cm: 10.02.2019 08:00:00 - 16.02.2019 08:00:00 (CET)Tarbes/Ossun, France (7621): Vitesse du vent & gusts: 10.02.2019 08:00:00 - 16.02.2019 08:00:00 (CET)Tarbes/Ossun, France (7621): Direction du vent: 10.02.2019 08:00:00 - 16.02.2019 08:00:00 (CET)Tarbes/Ossun, France (7621): reduced air pressure: 10.02.2019 08:00:00 - 16.02.2019 08:00:00 (CET)Tarbes/Ossun, France (7621): visibility: 10.02.2019 08:00:00 - 16.02.2019 08:00:00 (CET)Tarbes/Ossun, France (7621): Ensoleillement: 10.02.2019 08:00:00 - 16.02.2019 08:00:00 (CET)Tarbes/Ossun, France (7621): Quantités de précipitations: 10.02.2019 08:00:00 - 16.02.2019 08:00:00 (CET)
Date & Time tt [°C] td [°C] tt 5cm [°C] tt -20cm [°C] tt -100cm [°C] ff [km/h] ff [knt] fx [km/h] fx [knt] dd ppp [hPa] vv [km] sd [min] rr [mm]
16.02.2019 08:00:00 - - - - - - - - - - - - - -
16.02.2019 07:00:00 2,6 -3,7 -0,7 6,9 8,5 13 7 22 12 S 1028,6 25 0 0,0
16.02.2019 06:00:00 3,3 -2,7 -0,6 7,0 8,5 18 10 22 12 S 1028,4 31 0 0,0
16.02.2019 05:00:00 3,6 -3,0 -0,7 7,1 8,5 13 7 23 13 S 1028,3 25 0 0,0
16.02.2019 04:00:00 1,7 -2,6 -0,7 7,1 8,5 13 7 16 8 S 1028,7 25 0 0,0
16.02.2019 03:00:00 3,6 -2,6 -0,5 7,2 8,5 11 6 21 11 S 1028,5 29 0 0,0
16.02.2019 02:00:00 4,9 -2,2 -0,4 7,3 8,5 16 9 21 12 S 1028,3 28 0 0,0
16.02.2019 01:00:00 4,0 -2,2 -0,3 7,4 8,5 16 9 19 10 S 1028,5 25 0 0,0
16.02.2019 00:00:00 6,4 -2,8 -0,3 7,4 8,5 11 6 16 9 S 1028,0 18 0 0,0
15.02.2019 23:00:00 5,6 -2,0 -0,2 7,5 8,5 11 6 16 8 S 1028,1 20 0 0,0
15.02.2019 22:00:00 2,1 -1,5 -0,2 7,5 8,5 9 5 11 6 S 1028,7 20 0 0,0
15.02.2019 21:00:00 3,9 -1,3 0,0 7,4 8,5 8 4 16 9 S 1028,4 25 0 0,0
15.02.2019 20:00:00 4,1 -0,9 1,3 7,4 8,5 10 5 14 7 S 1028,5 25 0 0,0
15.02.2019 19:00:00 6,1 0,4 2,7 7,2 8,5 7 4 9 5 SSW 1027,8 37 8 0,0
15.02.2019 18:00:00 15,3 -1,3 8,6 7,0 8,5 6 3 14 8 N 1025,9 41 60 0,0
15.02.2019 17:00:00 16,9 -2,2 10,6 6,8 8,5 11 6 22 12 NNE 1025,6 39 60 0,0
15.02.2019 16:00:00 18,0 -5,3 20,7 6,6 8,5 13 7 23 12 NNE 1025,5 17 60 0,0
15.02.2019 15:00:00 18,6 -1,8 22,9 6,4 8,5 16 8 22 12 NNE 1025,4 22 60 0,0
15.02.2019 14:00:00 18,8 0,4 21,0 6,3 8,5 11 6 18 10 NNE 1025,5 23 60 0,0
15.02.2019 13:00:00 18,7 -0,2 16,2 6,3 8,5 8 4 16 9 N 1025,9 49 60 0,0
15.02.2019 12:00:00 18,4 0,5 11,1 6,3 8,5 5 3 9 5 NNE 1026,3 39 60 0,0
15.02.2019 11:00:00 16,7 -0,1 6,1 6,3 8,5 6 3 14 7 SSE 1026,4 40 60 0,0
15.02.2019 10:00:00 11,6 0,9 0,1 6,4 8,5 6 3 16 9 SSE 1027,2 30 60 0,0
15.02.2019 09:00:00 6,7 -2,5 -0,8 6,5 8,5 12 7 18 10 SSE 1027,8 39 40 0,0
15.02.2019 08:00:00 3,6 -3,5 -1,1 6,6 8,5 14 7 18 10 S 1028,0 46 0 0,0
15.02.2019 07:00:00 2,7 -3,0 -1,3 6,7 8,5 14 8 19 11 S 1027,9 47 0 0,0
15.02.2019 06:00:00 2,1 -2,8 -1,5 6,8 8,5 11 6 17 9 SSE 1027,9 46 0 0,0
15.02.2019 05:00:00 0,9 -2,5 -1,5 6,8 8,5 9 5 14 7 S 1027,9 46 0 0,0
15.02.2019 04:00:00 3,1 -2,2 -1,5 6,9 8,5 8 4 11 6 S 1027,5 49 0 0,0
15.02.2019 03:00:00 2,2 -1,8 - - - 8 4 11 6 S 1028,0 35 - 0,0
15.02.2019 02:00:00 2,1 -1,5 -0,7 7,1 8,5 10 5 16 8 SE 1028,2 37 0 0,0
15.02.2019 01:00:00 3,7 -0,7 -0,7 7,1 8,5 8 4 16 9 SE 1028,2 29 0 0,0
15.02.2019 00:00:00 2,5 0,7 -0,6 7,2 8,5 5 3 9 5 S 1028,6 23 0 0,0
14.02.2019 23:00:00 2,7 1,1 -0,4 7,2 8,5 6 3 8 4 S 1028,8 19 0 0,0
14.02.2019 22:00:00 1,4 0,1 0,2 7,2 8,5 7 4 9 5 S 1029,0 20 0 0,0
14.02.2019 21:00:00 3,4 1,4 0,6 7,1 8,5 7 4 12 6 S 1028,8 17 0 0,0
14.02.2019 20:00:00 4,9 2,9 1,6 7,0 8,5 5 3 8 4 SW 1028,6 28 0 0,0
14.02.2019 19:00:00 11,0 4,4 3,8 6,9 8,5 6 4 16 9 NNE 1027,9 33 6 0,0
14.02.2019 18:00:00 14,1 4,4 9,3 6,7 8,5 9 5 16 9 NE 1027,2 43 60 0,0
14.02.2019 17:00:00 16,3 3,7 10,6 6,5 8,5 9 5 21 11 NE 1027,1 53 60 0,0
14.02.2019 16:00:00 16,8 3,5 19,2 6,3 8,5 14 8 22 12 N 1027,1 31 60 0,0
14.02.2019 15:00:00 17,1 3,7 21,1 6,2 8,5 13 7 19 10 N 1027,4 34 60 0,0
14.02.2019 14:00:00 16,1 1,4 18,6 6,1 8,5 11 6 18 10 N 1028,1 33 60 0,0
14.02.2019 13:00:00 15,1 2,3 13,3 6,0 8,5 10 5 16 9 NNE 1028,7 31 60 0,0
14.02.2019 12:00:00 14,1 2,9 8,7 6,0 8,5 8 5 13 7 NNE 1029,4 30 60 0,0
14.02.2019 11:00:00 12,4 2,0 2,1 6,1 8,5 4 2 8 4 NNE 1029,7 37 60 0,0
14.02.2019 10:00:00 7,6 -1,1 -1,1 6,2 8,5 2 1 9 5 SE 1030,2 33 60 0,0
14.02.2019 09:00:00 1,4 -2,0 -2,4 6,3 8,6 4 2 11 6 S 1031,3 39 38 0,0
14.02.2019 08:00:00 0,0 -3,9 -2,4 6,4 8,5 5 3 13 7 SE 1031,2 32 0 0,0
14.02.2019 07:00:00 1,1 -3,6 -2,4 6,5 8,6 10 6 15 8 S 1031,0 42 0 0,0
14.02.2019 06:00:00 -0,5 -3,2 -2,2 6,6 8,5 10 5 16 9 SSE 1031,6 38 0 0,0
14.02.2019 05:00:00 -0,1 -3,5 -2,1 6,7 8,6 6 4 19 10 SE 1031,5 43 0 0,0
14.02.2019 04:00:00 1,2 -2,4 -2,0 6,8 8,6 12 6 16 8 S 1031,7 41 0 0,0
14.02.2019 03:00:00 0,1 -2,1 -2,0 6,9 8,5 9 5 12 7 S 1032,1 39 0 0,0
14.02.2019 02:00:00 -0,2 -1,6 -2,0 7,0 8,6 7 4 11 6 SSE 1032,0 28 0 0,0
14.02.2019 01:00:00 -1,2 -2,8 -1,7 7,1 8,6 8 4 10 5 S 1032,4 26 0 0,0
14.02.2019 00:00:00 0,4 -0,7 -1,4 7,1 8,6 7 4 9 5 SSW 1032,0 28 0 0,0
13.02.2019 23:00:00 1,6 0,1 -1,0 7,1 8,6 4 2 11 6 SSE 1031,8 19 0 0,0
13.02.2019 22:00:00 1,1 -0,5 -0,5 7,1 8,6 8 4 9 5 S 1031,9 17 0 0,0
13.02.2019 21:00:00 1,8 -0,5 0,0 7,1 8,5 6 3 10 5 SSE 1031,7 22 0 0,0
13.02.2019 20:00:00 2,7 -0,1 0,9 7,0 8,5 6 4 11 6 S 1031,8 35 0 0,0
13.02.2019 19:00:00 8,2 1,1 1,8 6,8 8,5 4 2 12 7 N 1030,6 43 5 0,0
13.02.2019 18:00:00 10,8 2,9 7,7 6,7 8,6 10 6 17 9 N 1029,7 44 60 0,0
13.02.2019 17:00:00 14,1 2,3 9,5 6,5 8,5 11 6 16 9 N 1029,1 46 60 0,0
13.02.2019 16:00:00 15,2 -0,6 18,5 6,3 8,5 9 5 15 8 N 1028,8 37 60 0,0
13.02.2019 15:00:00 14,7 0,1 19,6 6,2 8,6 8 4 15 8 NNE 1028,9 19 60 0,0
13.02.2019 14:00:00 13,9 2,1 16,7 6,1 8,5 10 5 17 9 N 1029,2 19 60 0,0
13.02.2019 13:00:00 12,4 0,2 11,0 6,1 8,5 7 4 13 7 N 1029,8 12 60 0,0
13.02.2019 12:00:00 10,3 0,6 6,5 6,2 8,5 7 4 11 6 N 1030,4 17 60 0,0
13.02.2019 11:00:00 7,0 0,2 0,1 6,3 8,6 5 3 9 5 NW 1030,9 47 60 0,0
13.02.2019 10:00:00 4,0 0,7 -1,8 6,4 8,5 4 2 11 6 S 1031,7 38 60 0,0
13.02.2019 09:00:00 -0,6 -1,9 -3,0 6,5 8,5 7 4 10 5 SSE 1032,7 20 37 0,0
13.02.2019 08:00:00 -3,1 -5,4 -3,1 6,6 8,6 9 5 11 6 S 1032,9 32 0 0,0
13.02.2019 07:00:00 -1,8 -3,1 -3,0 6,7 8,6 10 5 14 8 SSE 1032,6 34 0 0,0
13.02.2019 06:00:00 -1,9 -3,0 -2,9 6,8 8,6 8 5 11 6 SSE 1033,0 29 0 0,0
13.02.2019 05:00:00 -1,4 -1,7 -2,7 6,9 8,6 7 4 12 6 SSE 1032,9 28 0 0,0
13.02.2019 04:00:00 -1,0 -1,7 -2,3 7,0 8,6 8 4 12 7 S 1032,9 25 0 0,0
13.02.2019 03:00:00 -0,8 -1,1 -2,3 7,1 8,5 7 4 13 7 SSE 1033,4 24 0 0,0
13.02.2019 02:00:00 -2,6 -3,3 -1,9 7,2 8,6 6 3 10 5 SSW 1034,0 25 0 0,0
13.02.2019 01:00:00 -0,7 -1,4 -1,8 7,3 8,6 2 1 8 4 E 1033,9 19 0 0,0
13.02.2019 00:00:00 -0,7 -1,8 -1,3 7,4 8,6 6 3 7 4 SSE 1034,4 15 0 0,0
12.02.2019 23:00:00 -0,1 -1,5 -0,8 7,4 8,6 4 2 9 5 SE 1035,0 17 0 0,0
12.02.2019 22:00:00 1,2 0,0 -0,5 7,4 8,6 3 1 6 3 SSW 1034,8 22 0 0,0
12.02.2019 21:00:00 2,3 1,0 0,1 7,4 8,6 4 2 8 4 S 1034,3 20 0 0,0
12.02.2019 20:00:00 2,5 0,7 0,8 7,3 8,6 8 5 11 6 S 1034,5 31 0 0,0
12.02.2019 19:00:00 7,4 2,3 1,9 7,2 8,6 7 4 14 8 NE 1033,5 32 4 0,0
12.02.2019 18:00:00 8,5 2,9 6,8 7,0 8,5 11 6 21 12 NNE 1032,8 32 60 0,0
12.02.2019 17:00:00 10,3 2,9 8,1 6,9 8,5 15 8 23 12 N 1032,8 23 60 0,0
12.02.2019 16:00:00 11,1 2,4 16,3 6,7 8,6 12 6 22 12 NNE 1032,9 50 60 0,0
12.02.2019 15:00:00 11,4 2,9 18,3 6,6 8,5 11 6 24 13 NE 1032,7 59 60 0,0
12.02.2019 14:00:00 10,8 2,1 14,7 6,6 8,5 9 5 26 14 NNE 1033,2 18 60 0,0
12.02.2019 13:00:00 10,1 2,4 10,9 6,6 8,6 14 7 28 15 E 1034,0 33 60 0,0
12.02.2019 12:00:00 9,0 2,8 7,8 6,6 8,5 14 8 25 14 ENE 1034,8 18 60 0,0
12.02.2019 11:00:00 8,1 2,1 1,0 6,6 8,5 8 5 15 8 E 1035,2 54 60 0,0
12.02.2019 10:00:00 4,4 1,6 -0,3 6,8 8,6 5 3 11 6 SE 1036,6 54 60 0,0
12.02.2019 09:00:00 0,6 0,2 -1,0 6,9 8,6 7 4 16 9 SSE 1036,9 40 36 0,0
12.02.2019 08:00:00 -0,5 -0,8 -1,0 6,9 8,5 9 5 14 7 SSE 1036,4 39 0 0,0
12.02.2019 07:00:00 -1,0 -1,7 -0,7 7,0 8,6 10 5 14 8 S 1036,3 56 0 0,0
12.02.2019 06:00:00 -0,6 -1,6 -0,3 7,1 8,5 10 6 16 9 S 1036,0 47 0 0,0
12.02.2019 05:00:00 -0,3 -0,9 -0,1 7,2 8,6 11 6 14 8 SSE 1035,5 35 0 0,0
12.02.2019 04:00:00 0,1 -0,5 0,1 7,3 8,6 6 3 14 7 SSE 1035,4 18 0 0,0
12.02.2019 03:00:00 1,3 0,9 0,8 7,3 8,5 6 4 10 5 S 1035,4 13 0 0,0
12.02.2019 02:00:00 2,0 1,4 0,7 7,4 8,6 9 5 11 6 S 1035,7 27 0 0,0
12.02.2019 01:00:00 2,3 1,6 0,9 7,4 8,5 7 4 11 6 S 1036,0 29 0 0,0
12.02.2019 00:00:00 3,9 2,4 2,0 7,5 8,5 7 4 10 5 SSE 1035,8 30 0 0,0
11.02.2019 23:00:00 4,2 3,5 3,0 7,5 8,6 8 4 12 7 S 1035,7 58 0 0,0
11.02.2019 22:00:00 3,9 3,0 2,7 7,5 8,5 5 3 13 7 SSW 1035,4 57 0 0,0
11.02.2019 21:00:00 3,4 2,4 1,8 7,5 8,5 9 5 11 6 S 1035,0 40 0 0,0
11.02.2019 20:00:00 3,4 1,8 2,2 7,5 8,5 9 5 18 10 SW 1034,6 59 0 0,0
11.02.2019 19:00:00 6,4 3,9 4,7 7,4 8,5 15 8 31 17 SW 1033,3 60 0 0,0
11.02.2019 18:00:00 7,2 4,2 6,3 7,3 8,5 16 9 23 12 SW 1032,5 60 10 0,0
11.02.2019 17:00:00 7,9 4,8 8,1 7,2 8,5 13 7 20 11 SW 1032,2 56 12 0,0
11.02.2019 16:00:00 7,0 5,5 7,6 7,1 8,5 9 5 27 15 W 1032,1 8 0 1,2
11.02.2019 15:00:00 8,4 5,1 8,1 7,1 8,5 15 8 23 12 WSW 1031,5 19 6 0,6
11.02.2019 14:00:00 7,4 4,7 8,0 7,0 8,5 13 7 28 15 NW 1031,8 12 13 0,6
11.02.2019 13:00:00 9,6 5,4 9,5 7,0 8,5 17 9 32 18 SW 1031,3 56 34 0,0
11.02.2019 12:00:00 8,1 4,7 7,5 7,0 8,5 11 6 25 14 W 1031,9 54 15 0,0
11.02.2019 11:00:00 7,2 5,0 7,0 7,0 8,5 16 9 32 17 WSW 1031,4 56 0 0,0
11.02.2019 10:00:00 6,6 4,6 3,7 7,0 8,5 7 4 25 13 WSW 1030,7 60 27 0,4
11.02.2019 09:00:00 4,9 3,7 3,4 7,1 8,5 9 5 29 16 SW 1030,0 59 12 0,2
11.02.2019 08:00:00 5,6 3,8 4,0 7,1 8,5 18 10 26 14 WSW 1029,0 19 0 0,0
11.02.2019 07:00:00 5,6 3,9 4,5 7,1 8,5 14 8 29 16 SW 1028,4 57 0 0,6
11.02.2019 06:00:00 5,8 4,1 4,2 7,2 8,5 13 7 29 16 SW 1028,1 56 0 0,0
11.02.2019 05:00:00 6,2 3,4 3,9 7,2 8,5 11 6 27 14 WSW 1027,8 60 0 0,0
11.02.2019 04:00:00 5,6 3,1 3,3 7,2 8,5 18 10 31 17 SW 1027,9 60 0 0,0
11.02.2019 03:00:00 5,5 3,2 3,2 7,3 8,5 16 8 35 19 SW 1027,6 60 0 0,0
11.02.2019 02:00:00 6,0 2,8 3,2 7,4 8,5 20 11 34 19 WSW 1027,0 45 0 0,6
11.02.2019 01:00:00 5,6 1,7 2,6 7,4 8,5 16 9 29 16 SW 1026,6 18 0 0,0
11.02.2019 00:00:00 6,1 1,6 - - - 15 8 29 16 WSW 1026,1 18 - 0,0
10.02.2019 23:00:00 6,0 1,9 3,0 7,4 8,5 16 9 30 16 WSW 1025,7 57 0 0,0
10.02.2019 22:00:00 6,6 3,2 4,3 7,4 8,5 18 10 43 23 WSW 1025,1 50 0 0,0
10.02.2019 21:00:00 7,0 4,8 5,8 7,4 8,5 13 7 34 18 W 1024,9 13 0 0,2
10.02.2019 20:00:00 7,5 4,1 5,8 7,4 8,5 23 13 39 21 WSW 1024,2 26 0 0,0
10.02.2019 19:00:00 7,6 4,7 6,1 7,4 8,5 22 12 37 20 WSW 1023,3 59 0 0,0
10.02.2019 18:00:00 7,1 6,2 6,7 7,4 8,5 11 6 41 22 SW 1022,6 20 0 0,6
10.02.2019 17:00:00 7,4 5,7 6,9 7,2 8,5 29 16 52 28 WNW 1021,9 8 0 0,4
10.02.2019 16:00:00 8,5 6,3 8,1 7,2 8,5 26 14 54 29 WSW 1020,6 37 0 0,6
10.02.2019 15:00:00 8,1 7,3 8,2 7,1 8,5 22 12 50 27 W 1019,7 2,6 0 1,6
10.02.2019 14:00:00 8,4 7,5 8,3 7,1 8,5 34 18 79 43 W 1019,0 5 0 0,2
10.02.2019 13:00:00 10,1 7,2 9,7 7,1 8,5 54 29 91 49 WNW 1016,8 13 0 0,0
10.02.2019 12:00:00 14,9 6,5 9,5 7,1 8,5 32 17 49 27 W 1013,9 51 15 0,0
10.02.2019 11:00:00 9,5 6,6 6,2 7,1 8,5 3 2 20 11 S 1013,7 58 0 0,0
10.02.2019 10:00:00 8,0 3,5 4,3 7,2 8,5 16 9 24 13 SE 1013,9 13 0 0,6
10.02.2019 09:00:00 5,5 2,1 3,3 7,3 8,5 7 4 19 11 SE 1014,1 56 0 0,0
10.02.2019 08:00:00 4,3 2,6 2,1 7,4 8,5 10 5 12 6 SSW 1013,3 60 0 0,0

tt = Température de l'air
td = dewpoint
tt 5cm = Température de l'air 5cm
tt -20cm = Température de l'air -20cm
tt -100cm = Température de l'air -100cm
ff = Vitesse du vent
fx = gusts
dd = Direction du vent
ppp = reduced air pressure
vv = visibility
sd = Ensoleillement
rr = Quantités de précipitations

stations d'obs. à proximité